Theta_e
309 309 309 310 310 312 311 311 312 311 311 311 311 311 311 312 311 311 311 311 312 312 313 310 310 310 312 312 312 312 314 315 317 318 318 318 314 315 321 318 319 318 317 316 312 310 306 306 311 312 316 319 320 322 325 326 327 325 325 327 327 327 325
309 311 311 313 311 311 311 309 310 309 309 309 309 310 310 312 313 309 309 309 309 311 313 311 309 309 308 308 308 309 311 311 314 316 315 312 312 315 317 317 317 316 316 317 317 315 308 304 306 307 309 312 315 317 320 323 326 326 327 327 328 329 326
311 311 310 310 309 309 310 307 307 308 307 307 308 308 308 310 310 310 309 308 308 310 311 307 307 308 308 309 307 307 307 308 307 308 306 305 310 315 318 315 312 310 309 307 310 313 313 308 307 306 307 306 309 312 314 319 323 324 325 324 324 326 326
310 311 310 308 308 308 309 307 307 307 306 307 308 307 308 310 310 312 310 310 311 314 310 308 308 308 307 307 307 308 308 307 306 306 307 305 307 308 308 309 308 305 305 304 305 306 307 303 302 302 303 306 307 306 308 313 318 322 322 320 318 315 315
312 312 311 310 309 308 307 307 306 306 306 307 306 306 307 308 310 309 310 308 309 307 308 307 307 308 307 307 307 307 306 305 306 307 305 304 304 304 304 304 304 305 304 304 304 304 305 304 303 301 301 303 303 303 305 307 312 314 312 310 309 309 308
313 312 311 310 308 308 306 306 305 306 305 306 306 306 306 306 309 307 307 307 307 308 308 308 306 306 308 307 307 306 306 305 304 305 304 302 303 304 303 302 303 304 304 304 304 303 302 302 301 298 302 303 301 303 304 302 304 306 308 307 307 307 307
313 313 312 312 310 309 308 307 307 307 307 307 306 306 308 307 307 308 308 306 306 307 308 306 306 307 307 308 306 307 306 304 305 305 304 303 303 302 301 303 303 303 303 304 302 303 301 300 299 298 298 299 300 301 302 303 304 304 304 305 306 307 307
314 313 313 313 312 310 308 307 306 307 307 308 307 308 307 306 307 307 307 307 307 308 308 308 309 307 308 309 308 306 305 304 305 305 303 304 305 302 302 302 304 302 302 303 303 304 303 302 301 299 295 296 297 298 300 301 302 303 303 304 305 306 306
315 314 314 314 312 311 310 309 307 307 308 308 307 307 307 307 308 307 308 306 306 306 306 307 307 308 306 307 305 304 305 309 306 305 302 303 302 301 301 300 303 301 301 302 304 303 303 303 303 300 299 294 293 296 297 297 299 301 303 303 303 305 305
314 313 314 314 313 312 311 309 308 308 307 307 309 309 307 307 307 307 306 306 306 307 307 308 308 306 306 307 306 304 304 304 307 304 303 305 301 300 300 300 300 302 301 301 302 303 302 301 302 301 300 301 296 294 293 292 296 298 301 303 301 303 305
314 314 314 314 314 313 312 311 308 308 308 310 310 311 308 308 308 314 306 306 305 306 306 307 308 307 306 306 304 304 305 304 305 303 305 304 302 303 303 301 300 302 302 300 301 302 301 300 300 302 301 299 299 298 294 291 293 296 301 300 302 302 304
315 314 315 315 314 313 313 312 310 310 309 308 310 309 308 308 308 309 307 307 306 307 306 306 305 306 306 305 304 305 304 304 304 304 305 304 303 304 301 302 300 300 300 301 302 302 301 302 300 300 299 301 301 299 296 294 292 294 300 299 300 302 302
315 315 315 314 314 313 314 313 312 310 310 311 310 310 309 309 309 308 307 307 307 306 306 306 305 305 304 305 307 307 305 304 304 304 304 303 305 302 300 301 301 300 300 300 301 301 300 301 301 301 301 301 300 298 297 294 294 296 297 300 300 301 303
315 315 315 315 315 315 314 314 313 313 310 311 312 312 311 311 311 311 309 310 309 307 307 306 305 304 305 304 304 305 303 303 305 303 305 304 304 301 301 301 301 301 301 300 299 301 301 300 299 300 301 299 299 300 299 296 295 295 296 297 299 300 302
316 316 315 315 315 314 314 313 313 312 311 311 312 312 311 312 312 312 311 310 310 309 309 308 306 305 305 304 304 306 306 304 303 303 303 304 303 304 302 301 302 301 300 300 299 301 300 299 299 299 299 299 298 299 298 297 295 294 294 296 298 299 299
316 315 315 314 314 314 314 314 313 313 313 311 311 311 311 311 314 314 313 312 310 309 309 309 307 306 305 305 305 304 306 305 305 304 304 304 304 303 301 302 301 301 302 300 298 298 299 299 299 299 298 298 297 297 297 297 296 294 294 294 295 296 297
313 312 312 312 313 314 316 314 315 313 313 313 313 313 314 312 311 311 313 313 312 311 310 309 307 307 307 305 305 306 306 305 305 305 306 305 303 304 304 301 301 301 301 300 298 298 298 298 298 298 296 296 295 295 295 295 295 293 293 291 292 295 297
311 311 310 311 312 313 314 314 314 314 314 314 315 315 315 314 312 312 313 313 312 312 311 310 309 308 307 306 306 306 306 306 306 305 305 306 308 305 305 305 303 302 301 301 298 298 298 298 297 296 294 293 293 294 295 294 293 292 291 290 291 292 294
309 310 311 312 312 312 312 313 313 313 315 314 314 314 314 313 314 314 314 314 313 312 311 312 312 311 310 308 307 306 306 306 306 306 305 306 307 306 306 305 303 303 302 302 301 299 298 297 294 293 292 291 292 292 292 292 292 292 291 290 290 292 291
309 308 308 310 311 312 311 311 312 312 312 313 313 312 311 313 313 313 314 314 314 314 313 314 313 313 313 311 310 308 307 307 306 306 305 306 306 306 306 306 304 305 304 304 303 302 299 297 297 295 295 293 292 292 292 292 291 291 290 290 289 290 290
309 310 309 310 310 310 311 311 310 311 312 312 312 311 310 311 312 312 313 313 314 314 313 313 313 313 312 312 311 311 310 309 307 306 306 306 307 307 306 305 305 305 306 306 305 304 303 301 298 296 296 295 294 292 292 291 290 290 290 289 289 288 288
310 310 311 310 309 309 310 312 312 311 310 309 309 310 310 311 311 311 311 311 312 312 312 312 313 313 312 312 311 311 311 310 309 309 308 308 307 306 306 306 305 305 307 311 307 305 304 303 298 295 295 295 294 292 291 292 291 289 289 290 290 289 288
308 309 309 309 310 309 310 309 309 309 309 308 308 308 309 310 311 311 311 311 310 309 310 312 312 307 308 312 311 312 311 310 310 309 309 309 308 307 307 306 307 312 309 309 305 300 299 299 301 299 296 296 295 292 291 290 290 289 290 290 289 288 289
302 304 305 305 305 306 306 306 307 307 307 307 307 308 308 308 308 309 310 309 308 308 309 311 306 302 300 301 309 309 310 311 310 310 308 308 308 308 307 307 306 309 308 307 305 298 297 296 296 296 296 297 297 295 292 290 289 289 291 290 289 288 287
297 298 299 299 299 300 302 304 305 306 305 306 306 305 305 307 306 305 306 306 306 307 308 307 301 300 299 298 301 309 310 309 309 308 309 308 308 307 306 306 306 308 308 308 304 298 296 295 294 294 293 294 294 295 295 293 291 289 288 288 288 288 287
297 297 298 298 298 298 299 299 298 299 298 301 303 304 302 302 303 303 304 304 304 305 306 303 297 296 297 296 296 300 306 308 306 306 306 307 307 306 305 305 305 306 307 308 303 298 297 296 294 293 293 293 292 292 292 293 294 293 290 289 288 287 288
296 296 296 297 296 296 297 298 298 298 298 298 298 298 298 299 298 299 300 301 302 302 304 303 297 297 296 295 295 296 305 305 306 306 306 306 305 304 304 303 303 303 303 303 300 299 299 298 297 297 297 296 296 295 292 291 290 291 292 291 289 288 288
295 295 295 295 295 295 295 295 296 296 295 297 297 299 297 297 296 296 294 295 297 301 301 294 291 292 294 294 294 294 303 303 304 303 304 302 301 301 300 301 300 300 300 300 301 301 300 299 299 298 296 295 294 293 292 292 290 289 290 289 288 289 288
294 294 295 294 295 295 294 294 295 294 294 292 293 293 293 293 292 292 292 292 295 295 294 292 291 292 294 295 293 298 299 300 300 299 295 296 298 297 298 299 299 299 299 300 298 295 297 299 298 296 294 293 293 292 292 292 292 293 292 288 287 288 288
296 295 294 295 295 295 295 296 294 294 295 293 292 293 291 291 291 290 290 290 290 290 290 292 291 292 292 294 294 296 296 295 294 293 294 295 295 296 296 296 297 298 297 295 292 291 293 295 295 294 293 292 291 290 289 289 291 291 291 291 291 291 290
296 295 294 295 295 294 293 293 293 293 295 295 294 292 290 289 288 289 288 289 291 289 287 291 292 292 292 294 297 295 295 295 294 294 292 292 292 294 299 304 300 294 293 292 290 291 291 294 293 292 291 290 289 288 287 286 287 289 290 290 290 289 289
293 293 294 295 294 296 295 296 294 292 291 291 291 290 291 288 287 287 287 288 296 287 286 290 292 292 293 294 295 294 295 295 292 290 290 289 289 290 291 295 297 294 293 291 289 290 290 292 291 291 290 289 288 286 285 284 284 284 284 285 284 286 286
294 293 294 293 292 294 294 293 292 291 289 289 290 289 289 287 286 286 285 285 287 286 287 287 289 291 293 293 295 296 294 293 290 288 289 290 290 289 290 291 292 289 289 289 289 289 289 290 291 290 289 287 286 283 283 284 287 285 284 284 283 283 284
295 294 294 294 293 293 292 293 291 291 289 289 288 287 287 286 286 285 284 284 285 287 289 287 288 290 291 292 292 292 290 290 289 289 290 291 291 290 290 290 290 290 289 289 289 289 289 290 290 289 287 285 284 286 286 284 285 290 284 284 284 284 284
294 295 293 293 292 292 291 291 291 289 289 288 287 286 286 285 284 284 284 284 286 285 290 292 287 290 290 291 291 291 290 289 291 292 291 291 290 290 290 290 290 289 288 288 288 288 289 289 289 291 288 288 288 287 286 287 285 284 283 283 282 282 283
293 295 295 293 293 293 291 290 290 289 288 287 287 286 285 284 284 284 284 284 283 284 285 289 291 288 290 290 290 290 290 290 291 294 292 290 289 289 290 291 292 290 288 288 288 288 288 288 289 288 288 287 287 287 287 285 284 283 282 282 282 282 281
293 293 294 293 292 291 290 289 290 292 288 289 287 286 284 284 284 284 285 285 285 284 284 284 289 289 289 289 290 290 290 290 291 293 292 290 290 290 290 291 291 288 288 288 288 288 288 288 286 287 288 287 287 288 286 284 283 282 283 282 281 281 282
Wind_Speed
5 4 1 1 2 3 5 3 4 4 4 4 5 4 4 4 4 4 4 4 4 3 3 5 3 2 3 3 2 2 3 2 3 4 2 1 2 1 2 3 3 4 3 4 2 1 2 3 0 2 1 0 2 1 2 1 4 3 4 5 5 2 1
3 5 2 2 3 2 5 3 4 4 4 4 4 5 4 4 4 5 4 4 4 4 3 5 3 3 4 4 3 3 4 3 2 3 4 3 3 3 3 2 3 3 3 2 2 2 2 2 0 0 1 2 2 4 4 3 2 4 3 2 2 1 1
3 4 4 4 2 2 4 3 3 4 3 3 2 3 4 4 4 4 5 5 4 3 3 4 4 4 4 4 3 3 3 5 3 3 3 2 2 3 2 3 2 1 2 2 2 2 3 2 3 1 1 3 5 2 5 6 3 4 3 2 2 1 1
5 5 5 3 2 3 4 3 4 2 1 2 1 2 3 3 4 4 4 4 4 3 3 4 4 4 3 4 3 4 5 5 4 4 4 3 4 4 3 3 4 3 2 1 0 1 2 1 3 3 2 2 1 4 7 5 5 5 5 6 6 6 6
8 6 7 6 4 4 4 4 1 2 1 1 1 2 3 3 4 4 3 4 3 4 4 3 3 4 3 3 4 5 4 3 3 5 4 5 5 5 4 3 4 3 4 4 2 2 4 2 3 2 2 2 2 3 2 4 7 7 7 7 6 6 6
7 7 6 6 4 5 3 3 3 4 2 2 1 3 2 4 4 5 4 4 3 3 3 3 3 4 4 5 4 4 4 5 4 4 6 4 4 5 5 3 5 5 4 2 3 4 4 4 4 3 1 2 3 1 3 2 3 3 5 6 5 6 6
6 7 6 7 5 4 4 4 5 5 5 5 4 4 5 4 4 4 4 4 3 3 3 3 4 3 4 5 4 5 4 3 4 5 5 4 5 4 3 6 5 5 5 4 3 4 3 3 4 2 1 2 2 2 1 4 3 2 2 4 4 5 7
7 7 6 6 6 5 4 4 4 3 5 5 5 4 3 3 4 4 5 5 4 4 4 4 3 3 4 4 4 4 3 3 5 5 5 5 5 5 5 4 5 5 4 4 4 5 3 3 3 1 1 2 2 4 3 2 2 4 0 0 3 6 6
6 6 5 4 5 4 4 5 5 4 5 4 4 2 3 2 4 4 4 5 4 4 4 5 4 4 4 5 4 4 4 2 6 5 4 5 4 4 4 2 5 4 3 3 4 4 5 3 4 4 5 4 4 1 2 3 4 2 2 2 1 4 5
7 7 8 8 8 6 5 4 5 5 3 3 4 3 3 2 2 3 3 4 4 4 5 5 5 4 4 4 5 4 4 3 5 4 4 5 3 3 4 4 4 3 3 2 3 4 3 4 4 3 3 5 2 5 1 2 2 2 3 3 4 4 5
8 7 7 9 7 7 5 4 2 2 5 5 3 3 2 2 1 1 2 2 1 2 4 4 5 5 4 4 4 4 3 3 4 3 3 4 4 4 3 3 3 3 1 3 3 3 3 3 5 5 4 3 4 6 2 2 0 1 2 3 3 3 6
7 7 6 6 7 7 7 6 5 7 4 3 3 3 2 1 1 1 0 1 1 1 1 2 3 4 4 5 4 5 3 3 3 3 1 3 3 4 3 3 2 3 3 3 4 4 3 3 4 3 4 5 5 4 5 2 2 2 1 3 3 2 3
7 7 7 6 6 6 6 7 7 5 7 4 4 3 2 1 1 3 2 2 3 2 2 2 3 4 2 3 4 5 4 4 4 4 2 2 3 3 3 3 2 2 2 4 4 5 4 4 3 5 5 6 5 3 4 3 3 2 1 1 3 4 4
5 5 5 6 6 6 4 4 6 7 4 5 5 5 4 4 4 5 5 5 4 4 3 3 2 2 3 2 2 3 4 4 5 4 4 3 2 3 4 4 2 1 1 4 3 4 5 4 5 6 5 6 6 5 4 3 3 2 2 0 1 3 3
4 4 4 3 1 2 4 3 4 3 5 6 5 6 5 4 3 3 4 4 4 4 4 3 2 3 3 3 2 1 4 4 4 4 4 4 4 4 4 4 3 2 2 4 4 4 3 5 5 6 6 6 6 5 3 4 2 3 3 3 5 3 4
6 5 5 4 2 2 1 2 3 5 2 1 2 2 3 4 6 6 4 4 4 4 4 4 3 3 3 4 4 4 3 4 4 4 4 4 4 3 4 4 4 3 3 4 4 3 3 5 4 6 4 4 6 4 4 3 4 4 4 3 2 5 5
5 5 7 5 4 2 4 4 4 1 2 3 3 1 3 6 4 4 5 6 5 5 4 4 3 3 4 4 4 4 4 4 4 4 4 4 4 4 4 4 3 3 3 4 4 4 4 4 5 5 5 4 5 4 3 4 4 3 1 4 3 3 4
6 5 4 5 5 2 5 4 4 0 2 3 2 3 4 1 2 4 5 6 6 6 6 3 2 3 4 4 4 4 4 4 4 4 4 4 5 5 4 5 4 4 4 4 3 4 3 4 3 5 5 3 5 4 3 4 4 3 3 4 3 1 3
6 4 3 1 1 2 3 2 1 2 1 4 0 3 1 1 2 2 3 7 8 6 2 2 4 6 6 4 4 4 4 4 4 4 4 4 4 5 5 5 4 5 5 5 5 4 4 5 3 4 4 3 4 4 5 3 3 4 4 2 1 3 3
5 4 3 1 1 2 3 3 4 3 4 6 5 4 4 4 5 4 4 2 7 8 5 7 7 7 7 5 5 5 5 4 4 4 4 4 4 4 5 5 5 6 6 6 5 6 5 4 4 4 5 5 4 5 5 4 4 5 4 4 2 1 2
4 4 5 4 3 2 1 1 1 2 0 4 6 4 4 5 3 2 1 4 9 9 9 6 4 4 5 5 5 5 5 5 4 4 4 4 5 5 6 5 6 7 8 7 7 6 7 7 6 6 5 5 4 5 5 4 5 4 4 4 3 2 2
3 0 2 1 0 2 5 5 5 5 6 5 3 1 2 3 2 3 3 5 7 7 6 5 5 5 5 5 5 5 4 4 4 4 4 5 5 5 5 5 6 7 7 9 12 11 10 8 7 6 3 3 3 5 5 5 5 4 3 3 2 1 3
2 2 1 2 3 2 5 6 8 8 7 4 3 3 4 2 2 3 4 6 6 5 5 5 6 10 8 5 4 4 3 4 4 5 6 6 6 5 6 6 6 11 13 13 12 12 11 8 4 5 7 5 5 3 3 4 5 4 3 1 0 1 4
4 6 7 8 8 8 7 6 5 4 3 3 3 3 2 1 3 4 5 5 5 5 5 5 9 10 11 10 5 3 4 5 4 5 5 5 6 7 6 6 5 8 10 10 10 12 10 10 10 11 10 9 8 6 4 3 3 4 4 3 2 1 2
2 1 2 2 2 3 4 4 3 3 3 3 3 3 4 6 5 5 5 4 5 5 5 7 10 10 10 11 8 6 4 5 5 5 5 6 6 6 6 6 5 5 6 8 5 6 7 10 11 10 9 9 8 7 6 4 3 2 3 4 3 3 2
3 3 3 3 4 4 4 4 4 3 3 1 2 2 1 1 2 2 3 4 4 4 4 7 8 9 9 9 8 6 5 5 4 6 5 6 6 6 5 5 5 4 3 7 7 6 6 5 5 6 6 6 5 5 4 4 3 2 5 3 3 2 4
4 3 2 2 3 4 4 4 2 1 1 2 2 1 1 1 0 1 2 3 3 3 5 2 2 6 8 9 9 5 5 5 5 5 5 5 4 4 4 4 4 3 3 4 5 6 5 5 5 4 2 3 4 7 8 8 7 7 3 2 3 2 1
4 2 2 1 0 3 4 3 1 1 1 1 1 1 1 1 2 2 2 2 2 4 3 7 5 3 6 8 9 5 4 3 4 4 4 3 3 2 3 3 3 4 4 4 5 7 7 6 5 4 4 5 5 5 5 4 3 2 1 1 1 0 0
4 4 3 3 3 3 2 1 1 2 2 2 2 2 3 3 3 3 3 3 1 3 3 7 9 8 4 6 7 3 2 2 2 1 2 2 1 1 2 4 4 4 4 4 4 7 6 5 5 5 5 4 5 5 5 3 5 5 4 3 2 2 1
4 4 4 5 5 5 5 5 4 1 2 4 4 3 3 3 1 2 3 3 3 4 4 5 7 5 5 1 4 2 2 2 2 3 4 4 4 3 3 3 5 6 6 5 5 9 9 9 6 6 5 5 3 3 2 0 2 4 4 4 3 3 3
4 3 4 4 3 3 2 1 2 3 4 4 2 1 3 3 3 3 3 3 2 1 3 6 9 5 4 2 3 3 4 5 4 5 5 5 5 5 5 9 7 6 7 5 8 11 10 8 7 6 5 4 2 1 2 1 1 0 1 2 2 2 4
3 3 3 1 1 2 2 1 1 2 3 3 3 2 1 3 3 3 3 2 4 3 2 4 7 5 5 6 4 4 5 6 6 4 5 5 5 6 6 7 9 9 8 8 12 11 11 8 6 5 4 3 1 1 3 1 1 2 3 4 4 4 4
4 4 3 2 1 1 0 1 2 2 3 2 3 2 2 3 3 3 3 3 3 1 2 3 4 5 6 6 6 5 4 7 6 5 4 5 6 5 6 6 8 11 12 12 11 11 9 9 6 4 3 2 0 2 1 0 0 0 2 2 4 3 4
5 3 1 1 2 1 1 1 2 2 2 2 3 3 2 2 3 3 3 3 2 2 0 2 3 6 7 7 8 7 4 5 5 6 5 5 5 5 5 5 4 7 9 9 9 9 8 7 5 3 2 1 1 0 2 0 2 1 1 2 2 3 5
4 5 4 4 3 1 1 1 3 4 4 3 3 2 2 2 3 3 3 3 2 2 2 1 3 5 8 8 8 9 7 4 6 8 6 5 5 5 5 4 4 5 7 7 6 5 6 6 4 2 1 1 1 1 1 1 1 1 1 1 2 3 4
4 3 4 4 4 4 3 4 4 4 4 3 3 2 1 1 1 1 2 2 2 2 2 1 3 4 7 10 10 9 9 6 4 4 7 6 5 5 3 3 3 4 4 4 4 4 3 2 2 1 2 2 2 2 1 1 0 1 2 2 2 4 4
3 3 5 5 4 4 4 4 4 6 5 5 5 4 2 1 1 1 1 0 1 2 2 2 4 5 5 9 9 10 10 9 8 6 6 6 5 5 4 3 3 3 3 3 4 3 3 3 2 4 4 4 4 2 0 0 1 1 2 3 4 5 6
Wind_Direction
147 154 143 93 64 95 77 57 71 54 54 77 97 90 103 109 111 105 102 95 88 80 86 77 90 80 77 45 60 106 116 124 128 135 130 113 146 94 51 59 76 66 65 65 113 154 158 146 292 328 236 303 289 328 318 360 41 47 337 49 96 131 342
139 127 117 78 85 76 87 54 74 62 58 49 78 107 111 121 117 118 107 95 92 86 84 85 76 76 80 80 62 72 96 73 101 134 136 187 154 148 129 69 65 61 55 68 77 81 117 104 302 33 321 326 32 0 333 347 44 76 66 52 35 40 350
117 96 97 104 100 101 104 89 84 81 72 67 61 97 109 117 119 111 103 103 105 97 87 99 92 71 65 70 65 76 80 90 59 91 111 127 108 103 112 143 110 19 36 28 25 66 50 74 143 80 9 43 75 356 349 1 16 66 97 137 219 251 266
143 134 120 112 105 97 120 123 118 109 69 107 82 51 80 104 97 99 107 111 103 92 95 86 87 98 85 83 79 77 70 84 87 89 82 76 105 97 94 124 136 149 161 132 181 34 113 83 54 19 341 360 53 54 12 2 42 56 52 41 38 29 18
155 155 156 162 173 155 150 152 136 89 78 43 66 96 71 80 95 79 82 86 89 93 86 97 90 91 86 80 64 67 70 72 82 86 85 80 80 85 65 67 91 104 88 116 161 129 104 144 118 105 26 340 22 41 316 32 52 61 55 50 33 25 12
159 152 160 162 172 159 165 150 143 156 156 128 196 136 156 129 120 114 111 111 97 97 113 98 95 92 87 79 76 68 65 60 59 76 77 68 71 82 83 45 63 54 52 25 100 99 66 91 107 102 2 32 108 355 354 20 35 22 62 54 43 26 17
162 154 166 170 177 161 169 176 175 172 180 188 195 193 189 157 132 135 126 117 118 117 111 110 104 94 91 90 81 75 72 79 75 73 81 77 67 63 66 70 45 50 36 34 69 77 101 74 52 107 124 24 63 52 315 29 345 71 3 38 36 32 26
165 163 172 175 167 165 178 184 197 189 187 209 203 211 190 155 145 133 131 127 132 127 120 110 98 84 85 82 80 88 76 74 72 70 55 70 67 64 61 76 77 51 37 25 52 53 68 87 123 152 121 112 26 26 28 354 1 66 296 291 29 36 31
172 163 162 165 169 165 174 186 195 202 211 206 235 223 205 161 150 146 140 143 140 134 140 138 133 121 115 103 86 83 67 53 84 75 81 82 82 82 86 71 71 51 42 48 55 60 63 87 99 113 94 88 126 105 5 30 7 14 353 40 322 39 29
171 171 173 179 177 175 173 200 200 208 215 219 222 224 198 196 169 152 157 159 153 145 143 149 146 142 138 126 124 112 106 91 88 96 93 84 91 100 76 71 105 91 45 62 63 52 53 54 64 74 70 79 124 125 79 58 340 21 341 10 47 341 16
180 184 180 178 175 166 179 197 220 217 219 219 218 220 189 183 203 166 149 180 187 145 150 155 153 152 142 139 142 140 150 121 96 80 84 106 108 97 87 58 45 63 357 59 75 101 81 78 61 59 70 94 104 94 142 111 85 229 335 329 36 6 354
186 187 190 178 170 173 181 188 194 215 226 225 218 220 193 187 182 141 85 234 251 210 151 168 159 157 154 144 150 145 159 135 122 118 132 116 138 109 98 81 50 49 19 57 44 41 60 77 93 92 72 68 55 108 117 114 89 294 176 9 325 359 357
187 185 185 172 176 178 186 188 201 207 217 206 217 205 196 180 170 177 193 217 228 248 226 209 175 171 167 164 159 149 167 143 141 149 150 106 124 115 110 102 73 66 26 71 55 45 46 44 71 77 84 79 60 73 110 106 106 315 279 348 334 327 14
193 195 184 185 173 181 180 218 208 211 186 205 198 195 193 189 186 194 199 203 200 220 231 227 204 164 166 186 206 164 157 162 155 171 152 144 125 128 129 132 127 80 94 87 78 62 55 52 64 65 68 75 62 40 67 92 67 351 310 264 346 348 334
190 196 167 99 95 210 183 215 248 215 204 215 192 202 200 196 192 224 230 229 229 213 211 224 200 160 173 175 209 207 172 181 169 171 164 174 176 166 152 147 163 147 117 111 90 68 79 76 81 74 58 78 68 52 29 91 88 60 341 320 6 341 8
165 162 129 134 173 170 180 215 231 234 246 347 339 327 286 225 200 210 217 241 236 239 225 216 195 186 196 183 189 208 203 192 188 176 186 194 192 169 155 170 187 165 143 102 93 110 102 93 90 92 90 88 91 73 50 71 86 44 22 327 329 2 10
97 90 90 90 96 104 87 60 28 18 103 128 133 161 255 288 272 221 220 233 232 230 234 234 216 201 205 193 198 208 209 206 205 201 198 197 188 174 185 182 210 176 153 127 126 111 107 108 105 110 99 93 100 95 79 72 74 108 80 15 317 18 354
97 100 124 145 158 134 90 98 108 325 140 153 190 204 239 15 338 325 298 263 239 228 225 229 275 262 231 206 198 204 214 218 214 212 208 206 197 188 187 196 191 174 162 146 145 130 138 112 120 110 112 126 108 110 86 83 83 82 84 34 320 309 5
114 128 147 199 30 64 69 29 41 167 37 19 127 165 138 142 155 198 258 292 304 284 277 168 220 248 255 230 212 203 205 216 226 221 218 214 206 199 194 199 186 177 173 169 183 168 146 139 139 117 110 106 112 101 92 80 85 76 74 67 25 348 357
144 152 134 160 229 126 122 164 222 227 127 163 222 191 175 181 195 208 227 245 262 270 238 229 223 225 233 228 219 214 213 214 207 207 218 218 219 215 208 196 185 184 188 189 173 174 161 147 137 144 152 147 155 116 97 86 76 68 65 40 7 51 328
140 147 163 176 204 120 85 32 339 332 71 192 212 194 181 202 199 152 164 212 235 238 244 236 239 236 235 227 224 229 224 220 216 218 219 218 215 214 214 206 196 194 195 192 182 179 171 172 162 155 177 154 143 102 103 103 78 79 65 54 42 331 343
86 353 351 37 83 120 145 196 223 226 212 217 210 187 212 232 209 205 215 229 240 242 241 243 234 230 229 233 221 233 232 236 239 243 245 237 227 222 220 216 210 206 208 201 193 183 186 176 166 165 176 123 116 119 128 112 119 106 95 78 9 350 347
115 102 108 232 232 190 173 197 203 208 213 202 187 176 177 187 196 223 232 245 249 252 254 255 250 243 235 228 225 230 235 237 236 237 238 241 240 225 220 214 216 214 210 207 201 196 187 165 138 150 158 146 137 122 132 134 134 137 125 97 253 334 338
162 168 178 176 177 171 180 174 171 184 192 193 204 202 170 167 199 218 219 226 242 250 251 253 260 263 256 247 235 219 220 239 239 240 238 235 240 237 231 222 221 221 219 216 203 192 163 155 142 143 159 159 158 148 146 141 175 153 146 167 178 156 225
61 43 77 59 77 132 139 141 149 172 184 209 221 161 177 194 192 198 207 218 229 239 245 248 249 254 258 262 253 247 233 225 228 229 231 231 236 235 231 226 222 216 210 210 167 143 149 147 141 142 152 157 159 160 145 152 151 148 161 164 182 206 177
80 76 68 73 88 86 83 79 70 72 66 118 106 125 191 143 192 207 198 212 237 245 253 261 262 266 267 262 260 248 257 244 231 230 223 227 232 232 222 213 215 210 185 134 138 147 135 122 106 125 142 134 130 124 94 80 95 151 169 147 169 218 195
73 55 33 53 78 80 84 92 82 29 70 90 94 112 75 85 295 199 208 222 249 266 259 326 330 289 279 270 261 234 240 238 236 234 229 230 232 226 214 202 188 174 143 147 137 132 129 126 128 109 86 46 55 52 50 43 24 22 27 162 160 197 248
87 74 71 44 355 118 119 125 90 45 73 80 89 68 360 20 16 12 357 324 301 301 301 11 11 350 281 259 257 235 245 246 252 258 269 269 258 220 196 179 156 146 135 131 137 138 139 145 137 127 90 78 73 74 72 64 78 121 114 90 127 166 189
66 56 45 57 55 25 13 72 133 169 111 66 51 66 48 56 33 7 349 1 357 288 315 356 352 341 322 255 227 220 248 266 263 314 351 9 55 109 141 139 132 126 125 115 104 127 121 120 107 99 92 77 68 67 65 53 82 95 110 135 155 168 190
70 62 64 55 31 16 6 350 349 9 82 105 110 112 109 94 74 46 25 20 12 337 335 342 350 349 340 155 144 138 119 92 72 66 45 41 44 54 75 112 118 115 100 84 90 97 106 105 95 94 90 79 67 70 70 355 81 107 117 138 184 198 248
74 66 63 58 35 2 338 320 343 21 26 22 52 107 140 105 61 55 62 36 15 360 325 337 349 12 81 128 120 120 108 100 80 74 63 38 35 39 50 86 99 98 97 91 88 88 91 95 94 98 98 99 66 19 307 332 3 181 200 227 186 214 225
131 122 105 117 126 63 44 14 326 36 62 86 92 47 29 70 71 41 32 39 32 43 344 342 360 26 90 112 113 114 113 109 99 74 80 64 37 46 44 50 74 92 95 100 91 89 86 90 101 105 120 107 106 291 260 273 327 345 347 354 338 353 339
151 142 147 165 196 173 167 33 29 68 52 81 107 66 63 62 62 34 10 24 22 6 37 6 8 49 82 101 117 119 124 121 118 110 93 96 80 51 52 62 65 87 97 96 96 95 96 101 109 125 113 116 193 275 250 119 246 219 294 318 301 318 307
159 180 164 140 128 94 83 43 49 83 99 76 79 63 52 57 72 39 14 3 5 360 26 64 36 68 86 94 105 110 98 110 123 113 106 90 96 99 80 70 63 73 86 89 90 92 95 102 107 114 109 145 189 154 107 37 296 306 283 290 301 312 305
180 162 167 138 110 83 70 117 128 115 105 107 94 75 59 51 64 40 11 4 6 349 354 67 95 82 101 102 110 118 116 132 143 125 107 102 103 96 103 103 89 78 83 88 91 87 81 75 60 85 150 172 65 95 222 227 230 259 257 271 282 291 293
171 154 141 143 131 136 137 105 111 114 110 100 102 101 79 56 59 46 20 2 350 350 358 12 86 99 104 109 108 106 112 119 102 96 121 118 108 106 93 101 104 89 72 66 65 69 78 88 82 22 14 337 299 299 266 228 231 280 309 303 301 292 284
168 156 152 152 146 150 155 142 134 144 140 135 135 141 151 118 110 146 157 293 348 351 353 17 45 76 89 90 93 100 102 99 98 96 99 112 117 124 120 89 73 64 42 30 26 20 21 31 12 349 341 330 318 325 168 276 306 311 312 311 302 292 286